Погода в Ла-Тринидаде

Филиппины     16˚27′42″N   120˚34′50″E
темп.,
°C
ветер,
м/с
пор.,
м/с
влажн.,
%
обл.,
%
осадки,
мм/ч
давл.,
гПа
погр.,
м
17 января, вс
вс1723:00+21˚юв118564 0.0 101235
02:00+20˚в228555 0.0 101135
05:00+19˚в228342 0.0 101038
08:00+22˚вюв117359 0.0 101296
11:00+26˚з32651 0.0 1012863
14:00+24˚з227934 0.8 1010542
17:00+23˚ссз118397 1.3 1010275
20:00+21˚вюв228684 1.5 101249
18 января, пн
пн1823:00+20˚в238230 0.0 101357
02:00+20˚всв228058 0.0 101254
05:00+20˚в128091 0.0 101237
08:00+21˚всв117793 0.0 101377
11:00+25˚з226266 0.0 1013935
14:00+24˚зсз227577 0.4 1011582
17:00+22˚ссв018599 0.8 101078
20:00+20˚вюв228199 0.8 101354
19 января, вт
вт1923:00+19˚в2280100 0.0 101340
02:00+19˚в2280100 0.0 101136
05:00+19˚в228192 0.0 101035
08:00+22˚в127459 0.0 1012125
11:00+26˚зюз236133 0.0 1012938
14:00+26˚з226366 0.0 1011898
17:00+24˚с1272100 0.0 1010312
20:00+20˚в2375100 0.0 101259
20 января, ср
ср2023:00+20˚в227491 0.0 101240
02:00+20˚в237684 0.0 101148
05:00+20˚в2281100 0.0 101038
08:00+23˚вюв017356 0.0 1012118
11:00+28˚зюз225834 0.0 1012820
14:00+28˚з226163 0.3 1009916
17:00+25˚сз1274100 0.3 1009247
20:00+23˚вюв1278100 0.3 101040
21 января, чт
чт2123:00+21˚в1281100 0.0 101033
02:00+22˚всв1277100 0.0 100837
05:00+22˚в1176100 0.0 100836
08:00+23˚в1180100 0.2 100840
11:00+28˚зюз2161100 0.0 1008698
14:00+25˚зюз2276100 1.6 1005507
17:00+24˚юз1290100 4.2 1005104
20:00+21˚вюв0196100 6.3 100725